248  
ASUS42 KFFC 170110  
RWRGA  
WEATHER ROUNDUP FOR GEORGIA  
NATIONAL WEATHER SERVICE PEACHTREE CITY GA  
800 PM EST WED JAN 16 2019  
 
NOTE: "FAIR" INDICATES FEW OR NO CLOUDS BELOW 12,000 FEET WITH NO  
SIGNIFICANT WEATHER AND/OR S TO VISIBILITY
.  
 
* = USE WITH CAUTION. THE STATIONS MARKED WITH AN ASTERISK MAY NOT  
REPORT WEATHER SUCH AS PRECIPITATION, FOG, OR THUNDER AND ARE NOT  
QUALITY CONTROLLED BY NWS.  
 
THE REMARK "TC" DENOTES TEMPERATURE READING IN DEGREES CELSIUS.  
 
GAZ001>058-170200-  
NORTH GEORGIA  
 
CITY SKY/WX TMP DP RH WIND PRES REMARKS
 
ATLANTA FAIR 45 31 58 NW3 30.25S  
ATHENS FAIR 48 32 53 W3 30.22R  
CHAMBLEE FAIR 41 33 73 W5 30.25R  
PEACHTREE CITY FAIR 40 36 86 CALM 30.25S  
ROME FAIR 40 32 73 CALM 30.27R  
WEST ATLANTA FAIR 40 33 76 CALM 30.26R  
GAINESVILLE FAIR 42 34 73 W10 30.23S  
CARTERSVILLE FAIR 36 32 85 CALM 30.28R  
 
 
CITY SKY/WX TMP DP RH WIND PRES REMARKS
 
DALTON* FAIR 36 32 87 CALM 30.28F  
LAWRENCEVILLE* FAIR 43 35 73 W7 30.24R  
MARIETTA PTCLDY 41 33 72 NW5 30.25R  
KENNESAW* FAIR 41 33 73 VRB3 30.26S  
CANTON* FAIR 41 32 70 W7 30.25S  
BLAIRSVILLE* FAIR 33 31 92 S3 30.24S  

 
 
GAZ059>098-102>109-170200-  
CENTRAL GEORGIA  
 
CITY SKY/WX TMP DP RH WIND PRES REMARKS
 
AUGUSTA-BUSH FAIR 41 36 82 CALM 30.23R  
AUGUSTA-DANIEL FAIR 49 33 54 SE5 30.23R  
COLUMBUS FAIR 48 37 65 CALM 30.25S  
MACON FAIR 44 37 76 W6 30.25R  
ROBINS AFB CLEAR 45 38 75 CALM 30.24R  
 
 
CITY SKY/WX TMP DP RH WIND PRES REMARKS
 
LAGRANGE* FAIR 40 36 84 CALM 30.26R  
SYLVANIA* FAIR 42 37 83 CALM 30.25S  
MILLEDGEVILLE* FAIR 46 36 66 W3 30.25R  

 
 
GAZ099>101-110>166-170200-  
SOUTH GEORGIA  
 
CITY SKY/WX TMP DP RH WIND PRES REMARKS
 
SAVANNAH FAIR 44 36 73 CALM 30.25R  
VALDOSTA FAIR 42 36 79 CALM 30.27R  
ALMA FAIR 43 38 82 CALM 30.26R  
ST SIMONS FAIR 47 43 86 CALM 30.25R  
FT STEWART FAIR 41 37 85 CALM 30.23R  
ALBANY FAIR 45 36 70 CALM 30.29R  
HUNTER AFB FAIR 45 35 66 SW3 30.22R  
MOODY AFB FAIR 44 38 80 CALM 30.26R  
BRUNSWICK FAIR 41 37 87 CALM 30.26R  
 
 
CITY SKY/WX TMP DP RH WIND PRES REMARKS
 
BAINBRIDGE* N/A 45 36 70 MISG 30.28S  
MOULTRIE* FAIR 45 39 81 CALM 30.28R  
VIDALIA* FAIR 45 36 70 CALM 30.25R  
WAYCROSS* FAIR 44 37 75 CALM 30.26R  
DOUGLAS* FAIR 43 39 85 CALM 30.28R  

 
 
 
CLICK HERE TO GO TO PREVIOUS BULLETINS.

The Nexlab GA Page Main Text Page